Regional Weather Roundup
Issued by NWS Upton, NY

Current Version | Previous Version | Graphics & Text | Print | Product List | Glossary Off
Versions: 1 2 3 4 5 6 7 8 9 10 11 12 13 14 15 16 17 18 19 20 21 22 23 24 25 26 27
000 ASUS41 KOKX 160809 RWROKX REGIONAL WEATHER ROUNDUP NATIONAL WEATHER SERVICE NEW YORK NY 400 AM EDT WED AUG 16 2017 NOTE: "FAIR" INDICATES FEW OR NO CLOUDS BELOW 12,000 FEET WITH NO SIGNIFICANT WEATHER AND/OR OBSTRUCTIONS TO VISIBILITY. NYZ071-072-176-178-NJZ106-104-160900- NEW YORK CITY METRO AREA CITY SKY/WX TMP DP RH WIND PRES REMARKS Central Park CLOUDY 71 70 96 VRB3 29.94S FOG Bronx Bot Gard N/A 72 68 88 W8 29.93S LaGuardia APRT MOCLDY 72 71 97 SW3 29.90F Kennedy INTL MOCLDY 71 71 100 SW5 29.92S FOG Breezy Point N/A 70 N/A N/A W3 N/A Newark/Liberty MOCLDY 70 70 100 W7 29.91S FOG Teterboro CLOUDY 71 69 93 W5 29.90F FOG $$ NYZ177-179-078>081-160900- LONG ISLAND NEW YORK CITY SKY/WX TMP DP RH WIND PRES REMARKS Jones Beach N/A 72 N/A N/A W6 N/A Matinecock PT N/A 70 N/A N/A SW7 N/A Farmingdale PTCLDY 69 68 96 W3 29.91S MacArthur/ISP CLEAR 67 66 97 CALM 29.91R FOG Shirley PTCLDY 65 64 97 CALM 29.91S FOG Mt Sinai Harb N/A N/A N/A N/A SW1 N/A Westhampton MOCLDY 61 59 93 NW5 29.93R East Hampton FAIR 61 60 97 CALM 29.91R Montauk N/A 69 69 100 NW3 29.92R $$ NYZ052-065-067-160900- HUDSON VALLEY CITY SKY/WX TMP DP RH WIND PRES REMARKS White Plains MOCLDY 70 68 93 W7 29.91S FOG Larchmont Harb N/A 70 N/A N/A SW3 N/A Croton On Huds N/A 70 N/A N/A CALM N/A Newburgh CLOUDY 70 70 100 CALM 29.94R FOG Montgomery CLEAR 64 63 96 CALM 29.92S Poughkeepsie FOG 64 63 96 CALM 29.91S VSB 1/4 Albany PTCLDY 64 60 87 CALM 29.92S $$ NJZ001-105-106-008-010-013-015-019>022-104-160900- NEW JERSEY CITY SKY/WX TMP DP RH WIND PRES REMARKS Newark/Liberty MOCLDY 70 70 100 W7 29.91S FOG Teterboro CLOUDY 71 69 93 W5 29.90F FOG Caldwell CLOUDY 69 69 100 VRB3 29.92S FOG Somerville CLOUDY 70 70 100 CALM 29.91S FOG Linden CLOUDY 70 70 99 CALM 29.92S FOG Perth Amboy N/A 68 N/A N/A W7 N/A Sussex FOG 67 67 100 SW3 29.93S VSB 1/2 Andover N/A 68 67 96 S3 29.94S Trenton FOG 70 69 97 W3 29.92S VSB 1/4 Millville FOG 73 73 100 CALM 29.92S VSB 1/4 Atlantic City CLOUDY 73 73 100 CALM 29.92S Wrightstown FOG 71 71 99 NW5 29.90S VSB 3/4 Toms River FOG 70 69 97 CALM 29.93S VSB 1/4 Belmar FOG 71 70 96 W3 29.93F VSB 1/4 $$ PAZ047>061-062-071-160900- EASTERN PENNSYLVANIA CITY SKY/WX TMP DP RH WIND PRES REMARKS Philadelphia PTCLDY 72 70 93 VRB3 29.93S Allentown FOG 67 65 93 CALM 29.94R VSB 1/4 Scranton FOG 64 64 100 E3 29.97S VSB 1/4 $$ CTZ002-004>006-009-010-012-RIZ004-006-007-MAZ004-011-015-160900- SOUTHERN NEW ENGLAND IN CT CITY SKY/WX TMP DP RH WIND PRES REMARKS Bradley INTL PTCLDY 63 63 100 NW6 29.90S FOG Hartford CLEAR 68 67 96 S3 29.89S FOG Danbury CLOUDY 70 69 97 W3 29.93S FOG Wtrbury/Oxford CLOUDY 68 68 100 W3 29.93S FOG Norwalk Harbor N/A 70 N/A N/A W5 N/A Bridgeport CLOUDY 73 69 87 SW6 29.90F Meriden MOCLDY 69 67 93 SE3 29.91R New Haven CLOUDY 72 69 90 VRB3 29.91S Chester NOT AVBL Groton CLOUDY 68 66 93 N3 29.91R Wilimantic CLOUDY 69 68 96 CALM 29.91R IN RI CITY SKY/WX TMP DP RH WIND PRES REMARKS Providence PTCLDY 67 67 100 SW6 29.90F Block Island FOG 68 67 96 W5 29.91S VSB 1 Westerly CLOUDY 68 66 93 CALM 29.92R IN MA CITY SKY/WX TMP DP RH WIND PRES REMARKS Boston PTCLDY 67 65 93 SW8 29.88R Worcester PTCLDY 65 63 93 W9 29.91F Westfield FOG 65 65 100 CALM 29.90S VSB 1/4 Provincetown MOCLDY 67 66 97 W9 29.90R Nantucket CLOUDY 67 67 100 W5 29.89S $$ ANZ330-335-338-340-345-350-353-355-160900- COASTAL MARINE OBSERVATIONS STATION/POSITION TIME SKY/WX TEMP WIND PRES VSBY WAVE AIR SEA DIR/SP/G HT/PER (UTC) (F) (DEG/KT/KT) (MB) (MI) (FT/S) NY HARB ENTRANCE 0750 74 75 270/ 8/ 10 1012.2 5/13 GREAT SOUTH BAY 0730 74 77 260/ 6/ 8 N/A 23 SSW MONTAUK P 0650 70 71 1012.6 5/12 15 E BARNEGAT LI 0730 76 N/A 6/13 HUDSON CANYON 0750 72 74 40/ 4/ 6 1011.4 7/13 KINGS POINT 0742 72 73 220/ 4/ 5 1012.5 EXECUTION ROCKS NOT AVBL WESTERN LI SOUND NOT AVBL CENTRAL LI SOUND NOT AVBL EASTERN LI SOUND NOT AVBL ROBBINS REEF 0748 250/ 5/ 6 1013.4 $$ >>>>>>>>>>>>>>>>>>>>>>>>>>>> KEY <<<<<<<<<<<<<<<<<<<<<<<<<<< > < > SKY/WX - Sky Condition/Present Weather < > TMP - Temperature in Fahrenheit < > DP - Dew Point in Fahrenheit < > RH - Relative Humidity in Percent < > WIND - Direction (from) and Speed in MPH < > PRES - Mean Sea Level Pressure (inches of Hg) < > WCI - Wind Chill Index < > VSB - VISIBILITY IN MILES < > HX - HEAT INDEX < > TC - TEMPERATURE IN CELSIUS < > VRB - VARIABLE WIND DIRECTION < > < >>>>>>>>>>>>>>>>>>>>>>>>>>>> KEY <<<<<<<<<<<<<<<<<<<<<<<<<<<

USA.gov is the U.S. government's official web portal to all federal, state and local government web resources and services.